Vorticity
14 7 5 11 10 11 9 10 7 7 8 10 9 7 9 8 7 10 8 9 9 13 12 16 6 9 4
6 9 14 13 11 10 9 8 7 8 10 10 6 7 9 10 7 10 9 13 11 14 21 19 1 1 9
-10 -16 5 21 11 8 6 7 8 10 12 9 7 10 10 10 9 9 12 11 13 15 22 15 -5 7 14
25 44 6 9 9 8 8 8 9 10 10 9 10 12 11 10 9 11 12 13 18 13 18 -2 5 24 5
19 6 12 9 7 7 7 7 11 10 11 13 14 13 11 11 11 12 13 17 12 25 23 6 17 11 5
4 13 8 5 6 6 7 10 10 11 12 10 10 11 12 12 11 12 15 14 14 7 16 5 -9 20 9
10 8 7 6 7 8 8 10 11 13 12 11 10 11 12 12 13 13 16 14 20 11 6 3 8 6 6
6 6 6 7 7 9 10 9 12 12 10 10 10 10 11 11 13 12 13 16 15 3 10 23 -5 10 3
5 7 7 7 8 9 10 13 11 10 10 9 10 11 12 12 12 12 14 18 12 18 7 6 4 9 12
6 6 8 8 8 9 11 16 15 13 8 8 9 9 10 10 12 13 13 14 14 18 12 9 11 12 7
8 7 7 7 8 9 11 13 14 10 7 8 9 10 10 11 11 10 10 13 13 15 14 10 6 6 9
5 6 7 7 8 9 11 13 11 8 8 7 10 12 12 11 11 10 10 9 10 12 14 14 14 16 15
4 6 6 6 8 12 13 13 11 10 8 8 10 10 10 11 11 9 9 10 10 8 11 14 14 13 13
6 6 7 7 9 13 13 13 11 10 9 9 10 11 12 11 10 10 10 10 9 9 10 9 10 10 12
5 5 5 8 10 9 10 14 13 12 10 10 10 10 10 10 10 10 11 11 11 11 11 10 14 13 11
5 6 4 12 7 11 9 14 15 16 13 10 10 10 9 10 9 9 10 11 12 12 12 13 7 11 16
6 9 15 10 10 4 12 13 16 17 14 12 9 10 10 9 8 9 9 11 12 12 11 11 16 13 11
Height
3133 3133 3132 3130 3128 3127 3126 3124 3122 3121 3119 3117 3115 3113 3111 3108 3107 3104 3102 3100 3098 3097 3096 3096 3096 3096 3095
3127 3125 3125 3123 3121 3120 3119 3119 3116 3113 3111 3109 3108 3105 3103 3101 3098 3097 3095 3092 3089 3088 3089 3088 3088 3089 3090
3119 3117 3117 3117 3115 3112 3112 3110 3108 3106 3105 3102 3099 3098 3096 3094 3092 3091 3088 3085 3083 3084 3083 3085 3084 3085 3084
3108 3107 3109 3109 3105 3103 3102 3100 3099 3097 3095 3092 3091 3090 3088 3086 3084 3084 3082 3080 3077 3079 3078 3078 3077 3076 3078
3100 3101 3104 3100 3097 3095 3094 3092 3091 3090 3088 3086 3083 3082 3081 3079 3077 3076 3075 3073 3072 3072 3072 3072 3072 3073 3072
3094 3095 3094 3092 3091 3089 3088 3085 3083 3082 3079 3077 3077 3075 3074 3073 3071 3068 3067 3064 3065 3065 3069 3069 3067 3068 3068
3087 3087 3086 3083 3082 3080 3080 3080 3077 3075 3074 3071 3070 3069 3067 3065 3065 3064 3063 3062 3061 3061 3061 3060 3062 3063 3062
3078 3079 3078 3077 3075 3074 3072 3071 3071 3068 3066 3065 3064 3063 3061 3061 3059 3057 3057 3056 3055 3057 3059 3058 3056 3058 3060
3072 3071 3071 3070 3068 3066 3063 3061 3060 3059 3057 3057 3057 3056 3055 3054 3054 3051 3051 3050 3048 3049 3051 3051 3052 3050 3052
3063 3063 3062 3060 3058 3056 3055 3054 3051 3051 3050 3051 3049 3049 3048 3046 3046 3046 3043 3042 3043 3042 3040 3042 3043 3045 3045
3054 3053 3052 3050 3048 3046 3046 3045 3044 3044 3045 3045 3043 3041 3039 3039 3038 3036 3037 3036 3033 3035 3036 3035 3035 3037 3038
3043 3043 3041 3040 3041 3039 3039 3038 3037 3037 3038 3037 3037 3035 3032 3031 3032 3030 3029 3030 3028 3029 3028 3030 3029 3028 3030
3031 3032 3033 3034 3034 3033 3031 3030 3030 3030 3029 3029 3028 3026 3026 3026 3026 3026 3023 3025 3024 3022 3023 3024 3024 3024 3024
3022 3023 3023 3024 3024 3025 3023 3022 3021 3021 3021 3022 3022 3021 3019 3019 3018 3020 3018 3018 3017 3017 3017 3017 3019 3019 3019
3014 3015 3016 3014 3013 3015 3016 3013 3013 3011 3012 3014 3014 3013 3012 3013 3012 3011 3010 3011 3012 3011 3012 3011 3012 3013 3013
3004 3004 3006 3006 3004 3007 3006 3006 3005 3004 3004 3004 3007 3006 3006 3007 3006 3004 3004 3005 3005 3004 3005 3005 3005 3007 3008
2993 2994 2996 2996 2996 2998 2999 2998 2996 2995 2995 2997 2997 2999 2999 2999 2998 2997 2998 2998 2998 2998 2999 2999 2999 3002 3003